1491440400.42,53729,13.75,72946.0,-4.15,-4.93,-4.89,0,*51
1491440401.67,53730,13.75,72944.8,-4.13,-4.85,-4.85,0,*54
1491440402.93,53731,13.75,72946.8,-4.13,-4.89,-4.85,0,*59
1491440404.2,53732,13.75,72946.3,-4.15,-4.93,-4.93,0,*50
1491440405.45,53733,13.75,72944.8,-4.13,-4.93,-4.89,0,*5C
1491440406.71,53734,13.75,72942.8,-4.13,-5.19,-5.19,0,*50
1491440407.97,53735,13.75,72940.5,-4.13,-5.19,-5.27,0,*5C
1491440409.25,53736,13.75,72946.0,-4.15,-5.19,-5.11,0,*5C
1491440410.54,53737,13.75,72944.0,-4.15,-5.23,-5.31,0,*56
1491440411.83,53738,13.75,72940.8,-4.15,-5.23,-5.23,0,*5A
1491440413.12,53739,13.75,72944.8,-4.15,-5.19,-5.19,0,*5B
1491440414.4,53740,13.75,72934.5,-4.15,-5.31,-5.31,0,*55
1491440415.68,53741,13.75,72934.5,-4.15,-5.19,-5.19,0,*54
1491440416.98,53742,13.75,72930.0,-4.15,-5.23,-5.23,0,*57
1491440418.26,53743,13.75,72932.5,-4.15,-5.23,-5.11,0,*57
1491440419.54,53744,13.75,72938.5,-4.15,-5.19,-5.11,0,*59
1491440420.74,53745,13.75,72940.3,-4.17,-4.99,-4.99,0,*52
1491440421.97,53746,13.75,72944.8,-4.17,-5.11,-4.99,0,*50
1491440423.23,53747,13.75,72944.8,-4.17,-5.19,-5.19,0,*50
1491440424.49,53748,13.75,72948.3,-4.17,-5.23,-5.31,0,*5C
1491440425.78,53749,13.75,72946.8,-4.19,-5.27,-5.27,0,*50
1491440427.04,53750,13.75,72940.5,-4.17,-5.07,-5.07,0,*56
1491440428.26,53751,13.75,72938.3,-4.17,-4.99,-4.93,0,*5D
1491440429.52,53752,13.75,72936.0,-4.17,-4.81,-4.89,0,*5C
1491440430.8,53753,13.75,72938.5,-4.15,-4.89,-4.81,0,*5F
1491440432.06,53754,13.75,72936.8,-4.17,-4.89,-4.89,0,*52
1491440433.33,53755,13.75,72934.8,-4.15,-4.93,-4.89,0,*5A
1491440434.61,53756,13.75,72936.5,-4.15,-4.89,-4.89,0,*52
1491440435.89,53757,13.75,72946.0,-4.15,-4.93,-4.93,0,*53
1491440437.16,53758,13.75,72950.3,-4.15,-4.89,-4.93,0,*57
1491440438.43,53759,13.75,72948.0,-4.15,-4.93,-4.93,0,*5D
1491440439.7,53760,13.75,72950.3,-4.15,-4.93,-4.93,0,*57
1491440440.98,53761,13.75,72946.3,-4.15,-4.77,-4.89,0,*57
1491440442.25,53762,13.75,72946.8,-4.15,-4.81,-4.81,0,*55
1491440443.5,53763,13.75,72944.0,-4.13,-4.85,-4.77,0,*5F
1491440444.78,53764,13.75,72946.5,-4.15,-4.89,-4.81,0,*5B
1491440446.03,53765,13.75,72940.5,-4.13,-4.77,-4.77,0,*54
1491440447.3,53766,13.75,72950.8,-4.15,-4.77,-4.73,0,*55
1491440448.57,53767,13.75,72948.0,-4.15,-4.93,-4.81,0,*53
1491440449.84,53768,13.75,72942.3,-4.15,-4.93,-4.93,0,*5F
1491440451.12,53769,13.75,72948.8,-4.15,-4.93,-4.89,0,*55
1491440452.4,53770,13.75,72946.8,-4.15,-4.81,-4.89,0,*5E
1491440453.64,53771,13.75,72944.5,-4.13,-4.77,-4.77,0,*51
1491440454.89,53772,13.75,72952.3,-4.13,-4.77,-4.73,0,*56
1491440456.17,53773,13.75,72952.0,-4.15,-4.89,-4.81,0,*5D
1491440457.45,53774,13.75,72950.3,-4.15,-4.93,-4.89,0,*59
1491440458.72,53775,13.75,72950.3,-4.15,-4.93,-4.93,0,*53
1491440459.97,53776,13.75,72948.5,-4.13,-4.89,-4.85,0,*5A
1491440461.25,53777,13.75,72948.5,-4.15,-4.81,-4.89,0,*59
1491440462.5,53778,13.75,72950.5,-4.13,-4.77,-4.73,0,*5C
1491440463.78,53779,13.75,72950.0,-4.15,-4.89,-4.81,0,*57
1491440465.03,53780,13.75,72952.5,-4.13,-4.77,-4.77,0,*5F
1491440466.28,53781,13.75,72958.5,-4.13,-4.73,-4.73,0,*5E
1491440467.52,53782,13.75,72956.3,-4.13,-4.77,-4.77,0,*5D
1491440468.78,53783,13.75,72952.8,-4.13,-4.89,-4.89,0,*5C
1491440470.04,53784,13.75,72952.8,-4.13,-4.89,-5.03,0,*58
1491440471.32,53785,13.75,72952.8,-4.15,-5.11,-5.11,0,*5C
1491440472.54,53786,13.75,72952.0,-4.15,-4.99,-4.99,0,*5F
1491440473.81,53787,13.75,72948.5,-4.15,-4.93,-4.93,0,*5E
1491440475.07,53788,13.75,72952.0,-4.13,-4.89,-4.89,0,*57
1491440476.35,53789,13.75,72954.3,-4.15,-4.93,-4.89,0,*5B
1491440477.6,53790,13.75,72956.3,-4.13,-4.85,-4.73,0,*57
1491440478.85,53791,13.75,72954.0,-4.13,-4.89,-4.89,0,*5F
1491440480.1,53792,13.75,72954.3,-4.15,-4.99,-4.93,0,*50
1491440481.35,53793,13.75,72950.8,-4.13,-4.93,-4.89,0,*56
1491440482.62,53794,13.75,72944.5,-4.13,-5.07,-5.03,0,*5E
1491440483.91,53795,13.75,72940.0,-4.15,-5.23,-5.23,0,*5D
1491440485.2,53796,13.75,72946.3,-4.15,-5.23,-5.23,0,*5E
1491440486.49,53797,13.75,72950.5,-4.15,-5.31,-5.31,0,*5F
1491440487.77,53798,13.75,72948.3,-4.15,-5.23,-5.31,0,*53
1491440489.06,53799,13.75,72944.5,-4.15,-5.23,-5.23,0,*51
1491440490.32,53800,13.75,72940.5,-4.17,-5.11,-5.23,0,*5D
1491440491.59,53801,13.75,72932.8,-4.17,-5.07,-5.07,0,*5D
1491440492.84,53802,13.75,72932.0,-4.17,-4.93,-4.93,0,*5E
1491440494.03,53803,13.75,72940.3,-4.17,-4.99,-4.99,0,*5F
1491440495.28,53804,13.75,72940.3,-4.17,-4.93,-4.89,0,*53
1491440496.53,53805,13.75,72932.5,-4.17,-4.81,-4.77,0,*50
1491440497.8,53806,13.75,72932.5,-4.15,-4.77,-4.77,0,*58
1491440499.08,53807,13.75,72940.0,-4.15,-4.81,-4.81,0,*59
1491440500.35,53808,13.75,72938.5,-4.15,-4.77,-4.77,0,*56
1491440501.62,53809,13.75,72940.8,-4.15,-4.77,-4.81,0,*5E
1491440502.9,53810,13.75,72938.3,-4.15,-4.81,-4.89,0,*57
1491440504.17,53811,13.75,72942.8,-4.15,-4.93,-4.81,0,*5D
1491440505.42,53812,13.75,72944.8,-4.13,-4.77,-4.77,0,*5B
1491440506.7,53813,13.75,72940.0,-4.15,-4.77,-4.81,0,*55
1491440507.97,53814,13.75,72948.0,-4.15,-4.81,-4.81,0,*5B
1491440509.22,53815,13.75,72948.3,-4.17,-4.77,-4.77,0,*58
1491440510.49,53816,13.75,72948.0,-4.15,-4.93,-4.93,0,*59
1491440511.77,53817,13.75,72946.5,-4.15,-4.89,-4.93,0,*53
1491440513.04,53818,13.75,72946.5,-4.15,-4.81,-4.89,0,*5F
1491440514.29,53819,13.75,72950.0,-4.13,-4.85,-4.85,0,*50
1491440515.57,53820,13.75,72948.5,-4.15,-4.93,-4.81,0,*5F
1491440516.84,53821,13.75,72944.5,-4.15,-4.81,-4.77,0,*54
1491440518.05,53822,13.75,72948.3,-4.13,-4.61,-4.61,0,*58
1491440519.32,53823,13.75,72948.3,-4.15,-4.69,-4.69,0,*5F
1491440520.6,53824,13.75,72950.5,-4.15,-4.77,-4.69,0,*57
1491440521.85,53825,13.75,72944.8,-4.13,-4.73,-4.73,0,*5F
1491440523.08,53826,13.75,72946.0,-4.13,-4.73,-4.65,0,*5B
1491440524.35,53827,13.75,72946.0,-4.15,-4.77,-4.77,0,*5B
1491440525.58,53828,13.75,72950.3,-4.13,-4.73,-4.65,0,*55
1491440526.78,53829,13.75,72950.0,-4.13,-4.65,-4.61,0,*57
1491440528.05,53830,13.75,72948.3,-4.11,-4.77,-4.89,0,*58
1491440529.31,53831,13.75,72946.8,-4.13,-4.89,-4.85,0,*56
1491440530.56,53832,13.75,72946.0,-4.13,-4.85,-4.89,0,*55
1491440531.77,53833,13.75,72946.8,-4.13,-4.53,-4.53,0,*58
1491440532.98,53834,13.75,72944.5,-4.13,-4.65,-4.65,0,*5F
1491440534.19,53835,13.75,72948.0,-4.13,-4.65,-4.65,0,*5E
1491440535.39,53836,13.75,72950.5,-4.13,-4.61,-4.65,0,*59
1491440536.62,53837,13.75,72950.8,-4.11,-4.65,-4.65,0,*5E
1491440537.89,53838,13.75,72950.5,-4.11,-4.73,-4.77,0,*55
1491440539.16,53839,13.75,72950.3,-4.11,-4.77,-4.73,0,*54
1491440540.43,53840,13.75,72950.5,-4.11,-4.77,-4.73,0,*5A
1491440541.69,53841,13.75,72952.0,-4.11,-4.73,-4.77,0,*5B
1491440542.97,53842,13.75,72948.5,-4.11,-4.73,-4.73,0,*5C
1491440544.24,53843,13.75,72948.8,-4.11,-4.73,-4.73,0,*5D
1491440545.51,53844,13.75,72956.5,-4.11,-4.73,-4.73,0,*5A
1491440546.77,53845,13.75,72954.0,-4.11,-4.77,-4.77,0,*5B
1491440548.01,53846,13.75,72956.8,-4.09,-4.77,-4.73,0,*55
1491440549.28,53847,13.75,72952.8,-4.11,-4.77,-4.77,0,*59
1491440550.52,53848,13.75,72952.8,-4.09,-4.73,-4.77,0,*5B
1491440551.79,53849,13.75,72954.0,-4.11,-4.77,-4.77,0,*57
1491440553.06,53850,13.75,72954.0,-4.11,-4.73,-4.77,0,*5B
1491440554.33,53851,13.75,72954.3,-4.11,-4.73,-4.73,0,*5E
1491440555.6,53852,13.75,72956.5,-4.11,-4.73,-4.77,0,*59
1491440556.87,53853,13.75,72952.5,-4.11,-4.77,-4.73,0,*58
1491440558.09,53854,13.75,72954.0,-4.09,-4.65,-4.77,0,*51
1491440559.36,53855,13.75,72958.0,-4.11,-4.73,-4.73,0,*5A
1491440560.63,53856,13.75,72956.0,-4.11,-4.77,-4.85,0,*54
1491440561.89,53857,13.75,72952.0,-4.11,-4.77,-4.77,0,*58
1491440563.16,53858,13.75,72958.0,-4.11,-4.73,-4.77,0,*53
1491440564.43,53859,13.75,72952.0,-4.11,-4.73,-4.77,0,*52
1491440565.66,53860,13.75,72956.5,-4.11,-4.13,-4.25,0,*59
1491440566.89,53861,13.75,72958.3,-4.11,-4.61,-4.53,0,*5C
1491440568.09,53862,13.75,72958.8,-4.09,-4.65,-4.65,0,*57
1491440569.34,53863,13.75,72956.8,-4.11,-4.73,-4.61,0,*5C
1491440570.56,53864,13.75,72960.3,-4.09,-4.73,-4.65,0,*56
1491440571.79,53865,13.75,72962.3,-4.11,-4.65,-4.65,0,*59
1491440572.99,53866,13.75,72954.8,-4.09,-4.65,-4.65,0,*53
1491440574.19,53867,13.75,72962.3,-4.09,-4.65,-4.65,0,*52
1491440575.4,53868,13.75,72962.5,-4.09,-4.65,-4.65,0,*5D
1491440576.59,53869,13.75,72962.8,-4.09,-4.49,-4.53,0,*57
1491440577.79,53870,13.75,72960.8,-4.09,-4.65,-4.65,0,*54
1491440579.04,53871,13.75,72956.0,-4.09,-4.73,-4.73,0,*55
1491440580.24,53872,13.75,72958.5,-4.09,-4.09,-3.95,0,*54
1491440581.48,53873,13.75,72958.5,-4.09,-4.77,-4.73,0,*53
1491440582.73,53874,13.75,72958.0,-4.09,-4.89,-4.93,0,*5B
1491440583.98,53875,13.75,72954.5,-4.09,-4.89,-5.03,0,*52
1491440585.25,53876,13.75,72958.0,-4.11,-4.93,-4.93,0,*5B
1491440586.5,53877,13.75,72958.0,-4.09,-4.89,-4.85,0,*5F
1491440587.77,53878,13.75,72956.0,-4.11,-4.85,-4.85,0,*55
1491440589.01,53879,13.75,72958.8,-4.09,-4.77,-4.85,0,*50
1491440590.26,53880,13.75,72952.0,-4.09,-4.89,-4.89,0,*5B
1491440591.51,53881,13.75,72950.5,-4.09,-4.85,-4.85,0,*5A
1491440592.75,53882,13.75,72954.5,-4.09,-4.73,-4.73,0,*59
1491440593.99,53883,13.75,72958.3,-4.09,-4.77,-4.77,0,*58
1491440595.26,53884,13.75,72952.5,-4.11,-4.85,-4.85,0,*56
1491440596.51,53885,13.75,72952.5,-4.05,-4.69,-4.73,0,*59
1491440597.76,53886,13.75,72956.0,-4.05,-4.69,-4.73,0,*5A
1491440599.01,53887,13.75,72958.3,-4.05,-4.69,-4.69,0,*50
1491440600.25,53888,13.75,72956.3,-4.09,-4.77,-4.77,0,*53
1491440601.5,53889,13.75,72954.3,-4.05,-4.85,-4.81,0,*5A
1491440602.76,53890,13.75,72954.3,-4.05,-4.89,-4.85,0,*5A
1491440604.04,53891,13.75,72950.5,-4.11,-5.15,-5.15,0,*52
1491440605.32,53892,13.75,72952.3,-4.11,-5.07,-5.07,0,*51
1491440606.6,53893,13.75,72954.3,-4.11,-4.93,-5.03,0,*58
1491440607.84,53894,13.75,72950.5,-4.09,-4.93,-4.93,0,*5E
1491440609.11,53895,13.75,72950.8,-4.11,-4.93,-4.89,0,*5D
1491440610.35,53896,13.75,72952.3,-4.09,-4.77,-4.77,0,*5C
1491440611.61,53897,13.75,72950.0,-4.11,-4.85,-4.77,0,*59
1491440612.86,53898,13.75,72948.5,-4.09,-4.85,-4.85,0,*52
1491440614.1,53899,13.75,72950.8,-4.09,-4.85,-4.89,0,*5F
1491440615.35,53900,13.75,72948.3,-4.09,-4.89,-4.85,0,*5E
1491440616.63,53901,13.75,72950.3,-4.11,-4.89,-4.93,0,*51
1491440617.9,53902,13.75,72952.5,-4.11,-4.89,-4.93,0,*52
1491440619.18,53903,13.75,72948.5,-4.11,-4.89,-4.89,0,*58
1491440620.42,53904,13.75,72950.0,-4.09,-4.93,-4.89,0,*5D
1491440621.67,53905,13.75,72950.5,-4.09,-4.93,-4.85,0,*50
1491440622.91,53906,13.75,72948.5,-4.09,-4.85,-4.85,0,*54
1491440624.15,53907,13.75,72944.5,-4.09,-4.77,-4.77,0,*55
1491440625.42,53908,13.75,72944.5,-4.11,-4.77,-4.73,0,*57
1491440626.66,53909,13.75,72942.0,-4.09,-4.73,-4.77,0,*5F
1491440627.91,53910,13.75,72944.0,-4.11,-4.73,-4.65,0,*5D
1491440629.16,53911,13.75,72942.8,-4.09,-4.73,-4.73,0,*52
1491440630.4,53912,13.75,72944.8,-4.09,-4.73,-4.73,0,*51
1491440631.64,53913,13.75,72946.8,-4.09,-4.73,-4.73,0,*50
1491440632.89,53914,13.75,72944.5,-4.09,-4.73,-4.77,0,*53
1491440634.13,53915,13.75,72948.8,-4.09,-4.77,-4.77,0,*56
1491440635.37,53916,13.75,72952.3,-4.09,-4.85,-4.85,0,*55
1491440636.63,53917,13.75,72948.0,-4.05,-4.81,-4.81,0,*58
1491440637.88,53918,13.75,72954.5,-4.09,-4.89,-4.89,0,*5B
1491440639.13,53919,13.75,72952.0,-4.05,-4.81,-4.81,0,*56
1491440640.38,53920,13.75,72954.3,-4.05,-4.73,-4.73,0,*5C
1491440641.65,53921,13.75,72952.5,-4.11,-4.77,-4.77,0,*58
1491440642.89,53922,13.75,72948.0,-4.09,-4.77,-4.77,0,*52
1491440644.15,53923,13.75,72952.0,-4.11,-4.77,-4.77,0,*5A
1491440645.38,53924,13.75,72950.5,-4.09,-4.73,-4.65,0,*53
1491440646.61,53925,13.75,72954.5,-4.09,-4.77,-4.77,0,*55
1491440647.86,53926,13.75,72948.3,-4.09,-4.85,-4.85,0,*56
1491440649.13,53927,13.75,72948.0,-4.11,-4.85,-4.77,0,*53
1491440650.37,53928,13.75,72944.8,-4.09,-4.77,-4.73,0,*5C
1491440651.61,53929,13.75,72946.8,-4.09,-4.73,-4.73,0,*59
1491440652.85,53930,13.75,72944.8,-4.09,-4.77,-4.77,0,*51
1491440654.09,53931,13.75,72944.8,-4.09,-4.77,-4.73,0,*54
1491440655.34,53932,13.75,72940.0,-4.09,-4.89,-4.89,0,*53
1491440656.59,53933,13.75,72944.5,-4.09,-4.93,-4.93,0,*52
1491440657.83,53934,13.75,72940.3,-4.09,-4.93,-5.03,0,*5D
1491440659.09,53935,13.75,72938.0,-4.09,-5.03,-4.93,0,*5C
1491440660.35,53936,13.75,72936.5,-4.11,-4.93,-4.85,0,*59
1491440661.6,53937,13.75,72938.0,-4.09,-4.85,-4.77,0,*5B
1491440662.82,53938,13.75,72942.0,-4.09,-4.65,-4.73,0,*5E
1491440664.05,53939,13.75,72940.5,-4.11,-4.65,-4.65,0,*51
1491440665.3,53940,13.75,72946.0,-4.09,-4.89,-4.77,0,*57
1491440666.53,53941,13.75,72944.8,-4.09,-4.77,-4.77,0,*57
1491440667.8,53942,13.75,72944.5,-4.11,-4.77,-4.85,0,*50
1491440669.05,53943,13.75,72944.5,-4.09,-4.89,-4.89,0,*55
1491440670.3,53944,13.75,72944.3,-4.09,-4.85,-4.85,0,*52
1491440671.57,53945,13.75,72940.8,-4.11,-4.93,-4.89,0,*51
1491440672.82,53946,13.75,72942.3,-4.09,-5.03,-4.93,0,*58
1491440674.11,53947,13.75,72944.3,-4.11,-5.03,-5.03,0,*58
1491440675.36,53948,13.75,72940.5,-4.09,-5.03,-4.93,0,*56
1491440676.63,53949,13.75,72942.0,-4.11,-4.93,-4.93,0,*56
1491440677.87,53950,13.75,72944.5,-4.09,-4.93,-4.93,0,*57
1491440679.13,53951,13.75,72940.0,-4.11,-4.93,-4.93,0,*5F
1491440680.38,53952,13.75,72944.0,-4.09,-4.93,-4.89,0,*5E
1491440681.65,53953,13.75,72934.8,-4.11,-4.85,-4.85,0,*5D
1491440682.89,53954,13.75,72940.3,-4.09,-4.77,-4.77,0,*53
1491440684.13,53955,13.75,72942.8,-4.09,-4.73,-4.73,0,*52
1491440685.35,53956,13.75,72940.3,-4.09,-4.77,-4.65,0,*52
1491440686.59,53957,13.75,72946.0,-4.09,-4.77,-4.77,0,*50
1491440687.85,53958,13.75,72944.3,-4.05,-4.73,-4.85,0,*5A
1491440689.12,53959,13.75,72940.3,-4.11,-4.85,-4.85,0,*57
1491440690.36,53960,13.75,72940.3,-4.09,-4.77,-4.77,0,*54
1491440691.6,53961,13.75,72938.5,-4.09,-4.77,-4.77,0,*55
1491440692.83,53962,13.75,72936.0,-4.05,-4.61,-4.69,0,*52
1491440694.05,53963,13.75,72938.3,-4.09,-4.73,-4.65,0,*50
1491440695.29,53964,13.75,72936.8,-4.09,-4.77,-4.77,0,*50
1491440696.53,53965,13.75,72946.3,-4.09,-4.77,-4.77,0,*51
1491440697.78,53966,13.75,72946.5,-4.05,-4.73,-4.73,0,*5E
1491440699.03,53967,13.75,72940.5,-4.05,-4.81,-4.73,0,*52
1491440700.28,53968,13.75,72946.5,-4.05,-4.85,-4.69,0,*52
1491440701.52,53969,13.75,72948.0,-4.09,-4.77,-4.73,0,*59
1491440702.77,53970,13.75,72946.0,-4.09,-4.73,-4.77,0,*51
1491440704.01,53971,13.75,72944.0,-4.09,-4.77,-4.77,0,*54
1491440705.26,53972,13.75,72940.5,-4.05,-4.85,-4.85,0,*5B
1491440706.5,53973,13.75,72946.3,-4.09,-4.85,-4.89,0,*5A
1491440707.74,53974,13.75,72940.5,-4.09,-4.77,-4.77,0,*51
1491440708.98,53975,13.75,72946.5,-4.09,-4.77,-4.73,0,*54
1491440710.24,53976,13.75,72944.8,-4.05,-4.73,-4.81,0,*52
1491440711.49,53977,13.75,72944.0,-4.09,-4.89,-4.85,0,*5E
1491440712.74,53978,13.75,72942.8,-4.09,-4.89,-4.89,0,*5D
1491440713.98,53979,13.75,72936.8,-4.09,-4.85,-4.85,0,*5C
1491440715.23,53980,13.75,72936.5,-4.05,-4.69,-4.73,0,*5D
1491440716.48,53981,13.75,72940.8,-4.05,-4.69,-4.73,0,*5C
1491440717.7,53982,13.75,72940.3,-4.09,-4.73,-4.65,0,*5F
1491440718.94,53983,13.75,72940.5,-4.09,-4.77,-4.73,0,*5D
1491440720.18,53984,13.75,72942.3,-4.09,-4.77,-4.77,0,*5E
1491440721.43,53985,13.75,72946.0,-4.05,-4.69,-4.69,0,*53
1491440722.66,53986,13.75,72946.5,-4.05,-4.61,-4.73,0,*53
1491440723.91,53987,13.75,72956.8,-4.05,-4.69,-4.81,0,*57
1491440725.16,53988,13.75,72952.5,-4.05,-4.73,-4.81,0,*53
1491440726.42,53989,13.75,72952.3,-4.05,-4.73,-4.69,0,*54
1491440727.67,53990,13.75,72954.0,-4.05,-4.73,-4.69,0,*5C
1491440728.92,53991,13.75,72956.8,-4.05,-4.81,-4.73,0,*5B
1491440730.17,53992,13.75,72956.8,-4.05,-4.69,-4.73,0,*5E
1491440731.42,53993,13.75,72958.3,-4.05,-4.73,-4.73,0,*54
1491440732.67,53994,13.75,72954.5,-4.05,-4.85,-4.81,0,*57
1491440733.92,53995,13.75,72954.8,-4.05,-4.73,-4.81,0,*5F
1491440735.15,53996,13.75,72952.8,-4.03,-4.65,-4.73,0,*50
1491440736.37,53997,13.75,72958.0,-4.03,-4.65,-4.69,0,*5A
1491440737.62,53998,13.75,72956.0,-4.05,-4.85,-4.85,0,*5F
1491440738.84,53999,13.75,72956.3,-4.05,-4.85,-4.99,0,*53
1491440740.1,54000,13.75,72950.5,-4.05,-4.89,-4.89,0,*50
1491440741.3,54001,13.75,72952.5,-4.05,-4.99,-4.99,0,*51
1491440742.53,54002,13.75,72952.0,-4.05,-4.99,-4.89,0,*53
1491440743.81,54003,13.75,72954.0,-4.11,-5.19,-5.15,0,*5A
1491440745.07,54004,13.75,72954.5,-4.05,-5.03,-5.03,0,*54
1491440746.33,54005,13.75,72954.5,-4.09,-5.07,-5.07,0,*59
1491440747.58,54006,13.75,72954.0,-4.09,-5.19,-5.19,0,*5A
1491440748.86,54007,13.69,72944.0,-4.11,-5.19,-5.15,0,*5E
1491440750.14,54008,13.75,72950.0,-4.11,-5.19,-5.27,0,*50
1491440751.43,54009,13.75,72950.3,-4.11,-5.07,-5.15,0,*5F
1491440752.7,54010,13.75,72950.3,-4.11,-5.07,-4.93,0,*58
1491440753.99,54011,13.75,72950.8,-4.11,-5.03,-5.15,0,*52
1491440755.27,54012,13.75,72954.8,-4.11,-5.15,-5.07,0,*55
1491440756.56,54013,13.75,72944.8,-4.11,-5.07,-5.07,0,*57
1491440757.83,54014,13.75,72946.5,-4.11,-5.03,-4.93,0,*58
1491440759.11,54015,13.75,72946.5,-4.11,-4.93,-5.03,0,*59
1491440760.37,54016,13.75,72940.5,-4.09,-5.07,-5.03,0,*5F
1491440761.63,54017,13.75,72940.8,-4.09,-5.03,-5.03,0,*5A
1491440762.91,54018,13.75,72940.3,-4.11,-5.03,-5.07,0,*58
1491440764.19,54019,13.75,72936.8,-4.11,-5.03,-4.93,0,*55
1491440765.46,54020,13.75,72938.8,-4.11,-4.93,-5.03,0,*5F
1491440766.75,54021,13.75,72936.0,-4.11,-5.07,-5.07,0,*56
1491440768.02,54022,13.75,72936.0,-4.11,-4.93,-5.03,0,*5D
1491440769.29,54023,13.75,72936.3,-4.11,-4.93,-4.93,0,*54
1491440770.56,54024,13.75,72934.3,-4.11,-4.93,-4.89,0,*58
1491440771.83,54025,13.75,72932.3,-4.11,-4.93,-4.89,0,*59
1491440773.1,54026,13.69,72928.0,-4.11,-4.89,-4.89,0,*51
1491440774.37,54027,13.75,72934.5,-4.11,-4.93,-4.93,0,*50
1491440775.64,54028,13.75,72930.3,-4.11,-4.93,-4.93,0,*5F
1491440776.9,54029,13.75,72932.3,-4.11,-4.93,-4.93,0,*5E
1491440778.18,54030,13.75,72930.5,-4.11,-5.03,-4.93,0,*5E
1491440779.45,54031,13.75,72932.0,-4.11,-4.93,-4.93,0,*57
1491440780.71,54032,13.75,72934.0,-4.13,-5.03,-4.93,0,*5E
1491440781.96,54033,13.75,72938.0,-4.13,-5.03,-4.93,0,*5F
1491440783.22,54034,13.75,72938.0,-4.13,-5.03,-4.93,0,*58
1491440784.47,54035,13.75,72940.5,-4.13,-4.93,-4.93,0,*51
1491440785.73,54036,13.75,72944.0,-4.13,-5.03,-4.93,0,*5A
1491440786.99,54037,13.75,72936.3,-4.13,-5.03,-5.03,0,*53
1491440788.25,54038,13.75,72938.0,-4.13,-4.93,-5.03,0,*54
1491440789.5,54039,13.75,72940.0,-4.13,-4.93,-5.03,0,*55
1491440790.72,54040,13.75,72942.8,-4.15,-4.99,-4.99,0,*55
1491440791.97,54041,13.75,72940.8,-4.13,-4.93,-4.93,0,*52
1491440793.23,54042,13.75,72940.3,-4.15,-5.07,-4.99,0,*51
1491440794.48,54043,13.75,72940.3,-4.13,-4.93,-4.89,0,*5B
1491440795.73,54044,13.75,72940.5,-4.13,-4.85,-4.85,0,*57
1491440797.0,54045,13.75,72942.5,-4.15,-4.73,-4.73,0,*50
1491440798.25,54046,13.75,72938.0,-4.13,-4.77,-4.77,0,*55
1491440799.5,54047,13.75,72940.5,-4.13,-4.85,-4.73,0,*5D
1491440800.77,54048,13.69,72942.8,-4.11,-4.77,-4.85,0,*54
1491440802.05,54049,13.75,72948.3,-4.11,-4.89,-4.89,0,*58
1491440803.32,54050,13.75,72946.3,-4.11,-4.85,-4.85,0,*50
1491440804.59,54051,13.75,72942.0,-4.11,-4.85,-4.89,0,*5D
1491440805.86,54052,13.75,72940.8,-4.11,-4.89,-4.89,0,*52
1491440807.12,54053,13.75,72944.0,-4.13,-4.85,-4.85,0,*51
1491440808.37,54054,13.75,72942.8,-4.13,-4.89,-4.89,0,*56
1491440809.63,54055,13.75,72938.8,-4.13,-4.89,-4.89,0,*57
1491440810.89,54056,13.75,72932.0,-4.13,-4.89,-4.89,0,*54
1491440812.15,54057,13.75,72934.5,-4.13,-4.89,-4.89,0,*55
1491440813.42,54058,13.75,72936.0,-4.11,-4.85,-4.85,0,*58
1491440814.67,54059,13.75,72938.0,-4.13,-4.85,-4.77,0,*56
1491440815.92,54060,13.75,72938.3,-4.13,-4.73,-4.73,0,*51
1491440817.17,54061,13.75,72936.5,-4.13,-4.73,-4.73,0,*50
1491440818.42,54062,13.75,72936.3,-4.13,-4.73,-4.73,0,*53
1491440819.69,54063,13.75,72932.8,-4.15,-4.77,-4.77,0,*54
1491440820.94,54064,13.75,72942.8,-4.13,-4.77,-4.73,0,*51
1491440822.2,54065,13.75,72936.8,-4.13,-5.07,-5.07,0,*54
1491440823.46,54066,13.75,72946.5,-4.13,-5.19,-5.19,0,*57
1491440824.72,54067,13.69,72938.8,-4.13,-5.27,-5.19,0,*5B
1491440826.01,54068,13.75,72940.5,-4.15,-5.31,-5.31,0,*5F
1491440827.22,54069,13.75,72944.3,-4.13,-5.51,-5.51,0,*58
1491440828.45,54070,13.75,72944.5,-4.15,-5.43,-5.43,0,*56
1491440829.71,54071,13.75,72944.0,-4.13,-5.07,-5.11,0,*56
1491440830.97,54072,13.75,72936.5,-4.13,-5.07,-5.07,0,*52
1491440832.24,54073,13.75,72936.8,-4.13,-5.07,-5.03,0,*57
1491440833.53,54074,13.69,72936.0,-4.15,-5.07,-5.07,0,*52
1491440834.82,54075,13.75,72936.5,-4.15,-5.07,-5.07,0,*53
1491440836.1,54076,13.69,72934.8,-4.15,-5.11,-5.11,0,*50
1491440837.38,54077,13.69,72940.8,-4.15,-5.19,-5.19,0,*51
1491440838.67,54078,13.75,72940.0,-4.15,-5.31,-5.23,0,*5D
1491440839.93,54079,13.75,72934.3,-4.13,-5.27,-5.31,0,*5E
1491440841.19,54080,13.75,72930.5,-4.13,-5.07,-5.15,0,*5C
1491440842.47,54081,13.75,72938.5,-4.15,-5.11,-5.19,0,*50
1491440843.75,54082,13.75,72934.8,-4.15,-5.11,-5.19,0,*53
1491440845.04,54083,13.75,72930.3,-4.15,-5.19,-5.11,0,*52
1491440846.32,54084,13.75,72930.0,-4.15,-5.31,-5.31,0,*5D
1491440847.58,54085,13.69,72926.0,-4.17,-5.31,-5.31,0,*5E
1491440848.85,54086,13.75,72930.3,-4.17,-5.31,-5.31,0,*5D
1491440850.11,54087,13.75,72928.0,-4.17,-5.31,-5.31,0,*5C
1491440851.4,54088,13.75,72920.8,-4.19,-5.23,-5.27,0,*59
1491440852.66,54089,13.75,72924.5,-4.17,-5.19,-5.19,0,*52
1491440853.94,54090,13.75,72930.3,-4.19,-5.11,-5.15,0,*50
1491440855.2,54091,13.75,72928.3,-4.17,-5.07,-5.07,0,*5B
1491440856.46,54092,13.75,72930.3,-4.17,-5.19,-5.19,0,*58
1491440857.73,54093,13.75,72922.0,-4.17,-5.31,-5.31,0,*59
1491440858.99,54094,13.69,72920.0,-4.17,-5.07,-5.07,0,*5E
1491440860.21,54095,13.75,72924.0,-4.19,-4.99,-4.99,0,*51
1491440861.43,54096,13.75,72920.8,-4.19,-4.99,-4.99,0,*52
1491440862.68,54097,13.75,72924.5,-4.17,-4.93,-4.93,0,*5D
1491440863.95,54098,13.75,72922.8,-4.19,-4.93,-4.93,0,*5C
1491440865.2,54099,13.69,72926.5,-4.17,-4.93,-4.89,0,*58
1491440866.46,54100,13.69,72924.5,-4.17,-4.89,-4.89,0,*52
1491440867.73,54101,13.69,72924.8,-4.19,-4.85,-4.85,0,*5D
1491440869.01,54102,13.69,72928.0,-4.19,-4.85,-4.85,0,*5E
1491440870.26,54103,13.69,72936.8,-4.17,-4.89,-4.81,0,*59
1491440871.51,54104,13.69,72936.0,-4.17,-4.77,-4.81,0,*5F
1491440872.74,54105,13.69,72932.0,-4.17,-4.99,-4.93,0,*5D
1491440873.96,54106,13.75,72938.3,-4.15,-4.99,-4.99,0,*56
1491440875.16,54107,13.69,72930.3,-4.17,-4.99,-4.99,0,*55
1491440876.4,54108,13.69,72928.8,-4.17,-4.93,-4.93,0,*5A
1491440877.66,54109,13.69,72932.3,-4.17,-4.89,-4.93,0,*50
1491440878.9,54110,13.69,72934.0,-4.17,-4.93,-4.93,0,*53
1491440880.15,54111,13.75,72938.8,-4.17,-4.93,-4.93,0,*52
1491440881.41,54112,13.69,72938.0,-4.17,-4.89,-4.89,0,*51
1491440882.63,54113,13.69,72932.5,-4.17,-4.93,-4.99,0,*5A
1491440883.91,54114,13.69,72938.3,-4.15,-5.11,-5.11,0,*55
1491440885.19,54115,13.69,72932.8,-4.15,-5.19,-5.23,0,*5D
1491440886.45,54116,13.69,72932.3,-4.17,-5.11,-5.11,0,*55
1491440887.72,54117,13.69,72942.0,-4.17,-5.23,-5.23,0,*54
1491440888.94,54118,13.69,72938.0,-4.19,-5.39,-5.35,0,*59
1491440890.23,54119,13.69,72928.5,-4.19,-5.15,-5.07,0,*57
1491440891.43,54120,13.75,72932.3,-4.17,-4.99,-4.99,0,*50
1491440892.68,54121,13.69,72928.5,-4.17,-4.93,-4.93,0,*51
1491440893.93,54122,13.69,72932.0,-4.17,-4.77,-4.89,0,*53
1491440895.18,54123,13.69,72938.3,-4.17,-4.81,-4.81,0,*53
1491440896.4,54124,13.69,72936.5,-4.17,-4.99,-4.93,0,*5E
1491440897.69,54125,13.69,72946.3,-4.19,-5.23,-5.15,0,*5E
1491440898.96,54126,13.69,72938.3,-4.17,-5.31,-5.23,0,*55
1491440900.19,54127,13.75,72942.0,-4.17,-5.31,-5.35,0,*53
1491440901.42,54128,13.69,72934.8,-4.19,-5.35,-5.35,0,*56
1491440902.68,54129,13.69,72930.8,-4.17,-5.31,-5.31,0,*59
1491440903.97,54130,13.69,72922.8,-4.19,-5.27,-5.23,0,*5B
1491440905.25,54131,13.69,72910.8,-4.19,-5.15,-5.11,0,*5A
1491440906.52,54132,13.69,72912.5,-4.19,-4.93,-4.93,0,*5D
1491440907.79,54133,13.75,72920.0,-4.19,-4.93,-4.93,0,*5C
1491440909.04,54134,13.69,72924.3,-4.19,-5.03,-4.99,0,*59
1491440910.32,54135,13.69,72928.3,-4.15,-5.11,-5.11,0,*56
1491440911.58,54136,13.69,72928.5,-4.19,-5.61,-5.51,0,*5A
1491440912.79,54137,13.69,72924.5,-4.17,-5.47,-5.51,0,*51
1491440914.02,54138,13.69,72926.0,-4.19,-5.47,-5.39,0,*5E
1491440915.26,54139,13.69,72924.3,-4.17,-5.35,-5.23,0,*5F
1491440916.54,54140,13.69,72934.3,-4.19,-5.11,-5.03,0,*5B
1491440917.83,54141,13.69,72928.8,-4.19,-5.03,-5.03,0,*59
1491440919.08,54142,13.69,72928.5,-4.19,-5.03,-4.99,0,*58